Weather History for KAEL - November, 2012

Change the Weather History Date:

Wednesday, November 7, 2012

  Actual Average Record
Temperature  
Mean Temperature 38 °F -  
Max Temperature 42 °F 44 °F 75 °F (2001)
Min Temperature 33 °F 28 °F 0 °F (1998)
Degree Days  
Heating Degree Days 28    
Moisture  
Dew Point 33 °F    
Average Humidity 85    
Maximum Humidity 100    
Minimum Humidity 65    
Precipitation  
Precipitation 0.00 in - - ()
Sea Level Pressure  
Sea Level Pressure 30.06 in    
Wind  
Wind Speed 5 mph (NW)    
Max Wind Speed 9 mph    
Max Gust Speed -    
Visibility 10 miles    
Events      
Averages and records for this station are not official NWS values.
T = Trace of Precipitation, MM = Missing Value Source: NWS Daily Summary

Daily Weather History Graph

Daily Weather History Graph

Search for Another Location

Airport or City:

Trip Planner

Search our weather history database for the weather conditions in past years. The results will help you decide how hot, cold, wet, or windy it might be!

Date:

Astronomy

Nov. 07, 2012 Rise Set
Actual Time 6:57 AM CST 4:55 PM CST
Civil Twilight 6:27 AM CST 5:26 PM CST
Nautical Twilight 5:53 AM CST 6:00 PM CST
Astronomical Twilight 5:19 AM CST 6:34 PM CST
Moon No Moon Rise 1:17 PM CST (11/7)
Length of Visible Light 10h 58m
Length of Day
9h 58m
Last Quarter, 43% of the Moon is Illuminated
Nov 7
Last Quarter
Nov 13
New
Nov 20
First Quarter
Nov 28
Full
Dec 6
Last Quarter

Hourly Weather History & Observations

Time (CST) Temp. Windchill Dew Point Humidity Pressure Visibility Wind Dir Wind Speed Gust Speed Precip Events Conditions
12:11 AM 35.6 °F 28.6 °F 35.6 °F 100% 29.96 in 10.0 mi North 9.2 mph - N/A   Overcast
12:32 AM 35.6 °F 29.2 °F 35.6 °F 100% 29.97 in 10.0 mi NNW 8.1 mph - N/A   Overcast
12:52 AM 35.6 °F 28.6 °F 35.6 °F 100% 29.98 in 10.0 mi NNW 9.2 mph - N/A   Overcast
1:11 AM 35.6 °F 28.6 °F 35.6 °F 100% 29.98 in 10.0 mi NNW 9.2 mph - N/A   Overcast
1:32 AM 35.6 °F 29.2 °F 35.6 °F 100% 29.98 in 10.0 mi NNW 8.1 mph - N/A   Overcast
1:52 AM 35.6 °F 30.7 °F 35.6 °F 100% 29.99 in 10.0 mi NNW 5.8 mph - N/A   Overcast
2:11 AM 35.6 °F 29.9 °F 35.6 °F 100% 29.99 in 10.0 mi NNW 6.9 mph - N/A   Overcast
2:52 AM 35.6 °F 29.9 °F 33.8 °F 93% 30.00 in 10.0 mi NNW 6.9 mph - N/A   Overcast
3:11 AM 35.6 °F 29.9 °F 33.8 °F 93% 30.01 in 10.0 mi NNW 6.9 mph - N/A   Overcast
3:32 AM 35.6 °F 29.9 °F 33.8 °F 93% 30.02 in 10.0 mi NW 6.9 mph - N/A   Overcast
3:52 AM 37.4 °F 31.4 °F 33.8 °F 87% 30.02 in 10.0 mi NNW 8.1 mph - N/A   Overcast
4:11 AM 35.6 °F 29.2 °F 33.8 °F 93% 30.03 in 10.0 mi NNW 8.1 mph - N/A   Overcast
4:32 AM 35.6 °F 29.9 °F 33.8 °F 93% 30.04 in 10.0 mi NNW 6.9 mph - N/A   Overcast
4:52 AM 35.6 °F 29.9 °F 33.8 °F 93% 30.04 in 10.0 mi NNW 6.9 mph - N/A   Overcast
5:11 AM 35.6 °F 30.7 °F 33.8 °F 93% 30.04 in 10.0 mi NNW 5.8 mph - N/A   Overcast
5:32 AM 35.6 °F 32.8 °F 33.8 °F 93% 30.05 in 10.0 mi NNW 3.5 mph - N/A   Overcast
5:52 AM 35.6 °F 30.7 °F 33.8 °F 93% 30.06 in 10.0 mi NNW 5.8 mph - N/A   Overcast
6:11 AM 35.6 °F 30.7 °F 35.6 °F 100% 30.06 in 10.0 mi NNE 5.8 mph - N/A   Overcast
6:32 AM 35.6 °F 32.8 °F 33.8 °F 93% 30.06 in 10.0 mi NW 3.5 mph - N/A   Overcast
6:52 AM 35.6 °F 32.8 °F 33.8 °F 93% 30.07 in 10.0 mi NNW 3.5 mph - N/A   Overcast
7:11 AM 35.6 °F - 33.8 °F 93% 30.07 in 10.0 mi Calm Calm - N/A   Overcast
7:32 AM 35.6 °F - 35.6 °F 100% 30.08 in 10.0 mi Calm Calm - N/A   Overcast
7:52 AM 35.6 °F 32.8 °F 35.6 °F 100% 30.09 in 10.0 mi NW 3.5 mph - N/A   Overcast
8:11 AM 37.4 °F 33.8 °F 35.6 °F 93% 30.09 in 10.0 mi NNW 4.6 mph - N/A   Overcast
8:32 AM 37.4 °F 32.1 °F 35.6 °F 93% 30.10 in 10.0 mi NNW 6.9 mph - N/A   Overcast
8:51 AM 37.4 °F 32.8 °F 35.6 °F 93% 30.10 in 10.0 mi NNW 5.8 mph - N/A   Overcast
9:11 AM 37.4 °F 33.8 °F 35.6 °F 93% 30.10 in 10.0 mi NNW 4.6 mph - N/A   Overcast
9:32 AM 39.2 °F 35.9 °F 35.6 °F 87% 30.11 in 10.0 mi NNW 4.6 mph - N/A   Overcast
9:51 AM 39.2 °F 35.9 °F 35.6 °F 87% 30.11 in 10.0 mi NNW 4.6 mph - N/A   Overcast
10:11 AM 39.2 °F 35.0 °F 35.6 °F 87% 30.11 in 10.0 mi North 5.8 mph - N/A   Overcast
10:32 AM 39.2 °F - 35.6 °F 87% 30.11 in 10.0 mi Calm Calm - N/A   Overcast
10:51 AM 39.2 °F - 33.8 °F 81% 30.11 in 10.0 mi Calm Calm - N/A   Overcast
11:12 AM 41.0 °F 39.0 °F 32.0 °F 70% 30.10 in 10.0 mi NE 3.5 mph - N/A   Overcast
11:32 AM 41.0 °F - 32.0 °F 70% 30.10 in 10.0 mi Calm Calm - N/A   Overcast
11:51 AM 41.0 °F 39.0 °F 32.0 °F 70% 30.10 in 10.0 mi NNW 3.5 mph - N/A   Overcast
12:12 PM 41.0 °F - 32.0 °F 70% 30.09 in 10.0 mi Calm Calm - N/A   Overcast
12:31 PM 41.0 °F - 30.2 °F 65% 30.09 in 10.0 mi Calm Calm - N/A   Overcast
12:52 PM 41.0 °F - 32.0 °F 70% 30.09 in 10.0 mi Calm Calm - N/A   Overcast
1:12 PM 42.8 °F - 32.0 °F 66% 30.08 in 10.0 mi Calm Calm - N/A   Overcast
1:31 PM 42.8 °F 40.1 °F 33.8 °F 70% 30.08 in 10.0 mi West 4.6 mph - N/A   Overcast
1:52 PM 41.0 °F - 33.8 °F 76% 30.07 in 10.0 mi Calm Calm - N/A   Overcast
2:11 PM 41.0 °F - 32.0 °F 70% 30.08 in 10.0 mi Calm Calm - N/A   Overcast
2:31 PM 41.0 °F - 33.8 °F 76% 30.08 in 10.0 mi Calm Calm - N/A   Overcast
2:51 PM 41.0 °F - 33.8 °F 76% 30.08 in 10.0 mi Calm Calm - N/A   Overcast
3:11 PM 41.0 °F - 32.0 °F 70% 30.07 in 10.0 mi Calm Calm - N/A   Overcast
3:37 PM 42.8 °F - 33.8 °F 70% 30.08 in 10.0 mi Calm Calm - N/A   Overcast
3:51 PM 42.8 °F - 33.8 °F 70% 30.08 in 10.0 mi Calm Calm - N/A   Overcast
4:11 PM 41.0 °F - 33.8 °F 76% 30.08 in 10.0 mi Calm Calm - N/A   Overcast
4:32 PM 41.0 °F - 33.8 °F 76% 30.07 in 10.0 mi Calm Calm - N/A   Overcast
4:51 PM 41.0 °F - 33.8 °F 76% 30.07 in 10.0 mi Calm Calm - N/A   Overcast
5:11 PM 41.0 °F 39.0 °F 33.8 °F 76% 30.07 in 10.0 mi South 3.5 mph - N/A   Overcast
5:32 PM 39.2 °F 37.0 °F 33.8 °F 81% 30.07 in 10.0 mi SSE 3.5 mph - N/A   Overcast
5:51 PM 39.2 °F 37.0 °F 33.8 °F 81% 30.08 in 10.0 mi SE 3.5 mph - N/A   Mostly Cloudy
6:11 PM 39.2 °F 37.0 °F 33.8 °F 81% 30.08 in 10.0 mi SSE 3.5 mph - N/A   Overcast
6:32 PM 39.2 °F 35.0 °F 33.8 °F 81% 30.07 in 10.0 mi SSE 5.8 mph - N/A   Overcast
6:51 PM 37.4 °F 33.8 °F 33.8 °F 87% 30.07 in 10.0 mi SSE 4.6 mph - N/A   Mostly Cloudy
7:11 PM 37.4 °F 34.9 °F 32.0 °F 81% 30.07 in 10.0 mi SSE 3.5 mph - N/A   Clear
7:32 PM 37.4 °F 34.9 °F 32.0 °F 81% 30.07 in 10.0 mi South 3.5 mph - N/A   Clear
7:51 PM 35.6 °F 31.7 °F 32.0 °F 87% 30.06 in 10.0 mi SSE 4.6 mph - N/A   Clear
8:11 PM 33.8 °F 29.6 °F 30.2 °F 87% 30.07 in 10.0 mi SE 4.6 mph - N/A   Clear
8:32 PM 33.8 °F 29.6 °F 30.2 °F 87% 30.06 in 10.0 mi SSE 4.6 mph - N/A   Clear
8:51 PM 35.6 °F 30.7 °F 32.0 °F 87% 30.07 in 10.0 mi South 5.8 mph - N/A   Clear
9:11 PM 35.6 °F 29.9 °F 30.2 °F 81% 30.07 in 10.0 mi SSE 6.9 mph - N/A   Clear
9:32 PM 33.8 °F 29.6 °F 30.2 °F 87% 30.07 in 10.0 mi SE 4.6 mph - N/A   Clear
9:52 PM 33.8 °F 28.6 °F 30.2 °F 87% 30.07 in 10.0 mi SSE 5.8 mph - N/A   Clear
10:11 PM 33.8 °F 28.6 °F 30.2 °F 87% 30.07 in 10.0 mi South 5.8 mph - N/A   Clear
10:32 PM 35.6 °F 29.9 °F 30.2 °F 81% 30.07 in 10.0 mi South 6.9 mph - N/A   Clear
10:52 PM 35.6 °F 29.2 °F 30.2 °F 81% 30.06 in 10.0 mi SSE 8.1 mph - N/A   Clear
11:11 PM 35.6 °F 29.2 °F 30.2 °F 81% 30.06 in 10.0 mi South 8.1 mph - N/A   Clear
11:32 PM 35.6 °F 29.9 °F 30.2 °F 81% 30.07 in 10.0 mi South 6.9 mph - N/A   Clear
11:52 PM 33.8 °F 28.6 °F 30.2 °F 87% 30.07 in 10.0 mi South 5.8 mph - N/A   Clear